This is the latest recevied weather packets stored in our database for station/object DO7ZT-13. If no packets are shown the sender has not sent any weather packets the latest 10 day(s).
| Time | Temp. | Humidity | Pressure | Rain* | Wind** | Luminosity | Snow |
|---|---|---|---|---|---|---|---|
| 1778053525 | 16.11° C | 73% | 1005.4 hPa | 0 mm | 1.79 m/s, 173° | - | - |
| 1778053212 | 16.11° C | 74% | 1005.4 hPa | 0 mm | 0.89 m/s, 185° | - | - |
| 1778052925 | 16.11° C | 74% | 1005.4 hPa | 0 mm | 1.79 m/s, 204° | - | - |
| 1778052613 | 16.11° C | 74% | 1004.8 hPa | 0 mm | 2.24 m/s, 216° | - | - |
| 1778052325 | 16.11° C | 74% | 1004.8 hPa | 0 mm | 0.89 m/s, 245° | - | - |
| 1778052012 | 16.11° C | 76% | 1004.8 hPa | 0 mm | 0.45 m/s, 264° | - | - |
| 1778051725 | 16.11° C | 76% | 1005.3 hPa | 0 mm | 0.89 m/s, 240° | - | - |
| 1778051413 | 16.11° C | 75% | 1005.3 hPa | 0 mm | 1.34 m/s, 181° | - | - |
| 1778051125 | 16.11° C | 76% | 1005.3 hPa | 0 mm | 0.89 m/s, 306° | - | - |
| 1778050813 | 15° C | 77% | 1005.4 hPa | 0 mm | 1.34 m/s, 258° | - | - |
| 1778050525 | 15° C | 78% | 1005.4 hPa | 0 mm | 1.34 m/s, 126° | - | - |
| 1778050213 | 15° C | 79% | 1005.4 hPa | 0 mm | 1.34 m/s, 244° | - | - |
| 1778049925 | 13.89° C | 80% | 1005.3 hPa | 0 mm | 0.89 m/s, 234° | - | - |
| 1778049612 | 13.89° C | 84% | 1005.3 hPa | 0 mm | 0.89 m/s, 150° | - | - |
| 1778049337 | 13.89° C | 84% | 1005.3 hPa | 0 mm | 0.89 m/s, 174° | - | - |
| 1778049025 | 13.89° C | 86% | 1005.3 hPa | 0 mm | 0.45 m/s, 313° | - | - |
| 1778048713 | 13.89° C | 86% | 1005.3 hPa | 0 mm | 0.45 m/s, 186° | - | - |
| 1778048425 | 13.89° C | 86% | 1005.3 hPa | 0 mm | 0.89 m/s, 162° | - | - |
| 1778048113 | 12.78° C | 86% | 1005.1 hPa | 0 mm | 1.34 m/s, 191° | - | - |
| 1778047825 | 12.78° C | 86% | 1005.1 hPa | 0 mm | 1.34 m/s, 192° | - | - |
| 1778047513 | 12.78° C | 86% | 1005.1 hPa | 0 mm | 1.34 m/s, 160° | - | - |
| 1778047225 | 12.78° C | 84% | 1005.1 hPa | 0 mm | 1.34 m/s, 168° | - | - |
| 1778046913 | 12.78° C | 86% | 1005.1 hPa | 0 mm | 1.79 m/s, 168° | - | - |
| 1778046625 | 12.78° C | 88% | 1005.1 hPa | 0 mm | 1.79 m/s, 167° | - | - |
| 1778046313 | 12.78° C | 89% | 1005.2 hPa | 0 mm | 1.79 m/s, 174° | - | - |
* Rain latest hour (hover to see other rain measurements)
** Current wind speed in m/s (hover to see current wind gust speed)